www.pogodaiklimat.ru

Погода и климат >> Архив погоды >> Китай >> Хубэй >> Мачэн


ПОГОДА в Мачэне

  • Прогноз погоды в Мачэне
  • Монитор погоды в Мачэне

АРХИВ ПОГОДЫ в Мачэне

Время (UTC), дата Ветер
(напр.,м/с)
 
Видим.   Явления Облачность Т
(С)
Тd
(С)
f
(%)
Тe
(С)
Тes
(С)
Комфортность P
(гПа)
Po
(гПа)
Тmin
(С)
Tmax
(С)
R
(мм)
R24
(мм)
S
(см)
00 13.09 Ю 1 16 км ясно +29.2 +22.9 69 +39 +43 очень
душно
1010.0 1003.3
03 13.09 ЮЗ 2 19 км ясно +34.7 +22.1 48 +43 +58 опасность
перегрева
1009.6 1003.0
06 13.09 С 6 20 км ясно +36.7 +22.8 45 +46 +52 опасность
перегрева
1007.6 1001.1 +25.5
09 13.09 С 6 18 км ясно +32.3 +22.7 57 +42 +43 опасность
перегрева
1008.3 1001.7
12 13.09 С 6 13 км ясно +28.9 +22.9 70 +38 +38 очень
душно
1011.0 1004.3
18 13.09 С 7 29 км ?/? +26.1 +20.2 70 +32 +32 очень
душно
1011.7 1004.9 +37.9
21 13.09 С 5 17 км н/о +24.6 +20.3 77 +30 +30 очень
душно
1012.1 1005.3
00 14.09 С 7 11 км ясно +24.8 +19.6 73 +30 +31 душно 1013.6 1006.8
03 14.09 С 5 15 км 3/3
[]
+29.5 +19.5 55 +35 +41 очень
душно
1013.4 1006.7
06 14.09 С 4 23 км 5/5
[]
+32.3 +20.2 49 +39 +44 очень
душно
1011.3 1004.6 +24.2
09 14.09 С 6 29 км 3/3
[]
+31.1 +19.1 49 +37 +37 очень
душно
1010.7 1004.0
12 14.09 С 6 21 км 8/8
[]
+26.3 +19.9 68 +32 +32 очень
душно
1012.3 1005.5
18 14.09 С 1 11 км ?/? +24.4 +20.9 81 +31 +31 очень
душно
1012.1 1005.3 +32.9
21 14.09 С 2 11 км н/о +22.6 +20.5 88 +29 +29 очень
душно
1011.7 1004.8
00 15.09 С 3 13 км 3/3
[]
+24.5 +21.0 81 +31 +33 очень
душно
1013.1 1006.3
03 15.09 С 5 21 км 9/9
[]
+28.0 +21.3 67 +35 +36 очень
душно
1013.2 1006.4
06 15.09 С 5 25 км ясно +29.7 +21.4 61 +38 +45 очень
душно
1011.0 1004.3 +22.2
09 15.09 С 4 26 км 6/6
[]
+26.6 +20.9 71 +33 +34 очень
душно
1011.0 1004.2
12 15.09 С 5 24 км ясно +23.7 +20.8 84 +30 +30 очень
душно
1012.6 1005.7
18 15.09 С 4 16 км ?/? +21.2 +17.8 81 +25 +25 комфорт 1012.7 1005.8 +30.0
21 15.09 С 3 12 км н/о +20.7 +17.7 83 +25 +25 комфорт 1013.3 1006.4
00 16.09 С 5 10 км 10/10
[]
+20.6 +17.4 82 +24 +24 комфорт 1014.9 1008.0 0.0
03 16.09 С 3 13 км 10/10
[]
+21.7 +17.5 77 +26 +26 душно 1015.1 1008.2
06 16.09 С 4 17 км 10/10
[]
+23.3 +17.7 71 +29 +29 душно 1013.5 1006.6 +20.4
09 16.09 С 4 24 км 10/10
[]
+23.6 +17.6 69 +28 +28 душно 1013.0 1006.1
12 16.09 С 3 29 км 10/10
[]
+22.5 +16.8 70 +27 +27 душно 1013.4 1006.5
18 16.09 С 2 30 км ?/? +21.4 +16.6 74 +25 +25 комфорт 1014.3 1007.4 +24.1
21 16.09 С 2 27 км н/о +21.0 +17.0 78 +26 +26 душно 1014.8 1007.9
00 17.09 С 3 20 км 10/10
[]
+21.2 +17.6 80 +25 +25 комфорт 1016.5 1009.6
03 17.09 С 3 22 км 10/10
[]
+22.2 +17.3 74 +27 +27 душно 1017.2 1010.3
06 17.09 С 3 20 км 10/10
[]
+23.4 +18.5 74 +30 +30 очень
душно
1016.2 1009.3 +20.9
09 17.09 С 3 26 км 10/10
[]
+23.2 +17.4 70 +29 +29 душно 1016.0 1009.1
12 17.09 С 4 11 км 10/10
[]
+22.2 +17.6 75 +27 +27 душно 1017.5 1010.6
18 17.09 С 3 7000 м ?/? +21.0 +18.6 86 +26 +26 душно 1018.5 1011.5 +24.1
21 17.09 С 5 3200 м слаб. дождь н/о +19.1 +19.1 100 +21 +21 комфорт 1019.7 1012.7
00 18.09 С 3 8000 м в посл. час дождь 10/10
[]
+19.1 +19.1 100 +21 +21 комфорт 1021.7 1014.7 3
03 18.09 С 3 7000 м 10/10
[]
+20.0 +20.0 100 +24 +24 комфорт 1022.2 1015.2
06 18.09 СЗ 4 14 км 9/9
[]
+25.1 +19.0 69 +30 +31 душно 1020.0 1013.1 +18.8
09 18.09 С 4 17 км 10/10
[]
+26.0 +16.5 56 +30 +30 душно 1019.4 1012.6
12 18.09 С 2 15 км 10/10
[]
+24.1 +16.6 63 +28 +28 душно 1020.6 1013.7
18 18.09 СВ 2 10 км ?/? +20.5 +17.7 84 +25 +25 комфорт 1019.9 1012.9 +27.2
21 18.09 С 2 7000 м дымка н/о +19.3 +18.5 95 +22 +22 комфорт 1019.7 1012.7
00 19.09 С 3 16 км 8/8
[]
+22.8 +17.9 74 +28 +29 душно 1020.5 1013.6
03 19.09 ЮВ 1 20 км ясно +28.9 +14.3 41 +31 +48 жарко 1019.2 1012.4
06 19.09 СЗ 2 30 км ясно +31.8 +11.1 28 +32 +45 жарко 1016.3 1009.6 +19.0
09 19.09 С 6 30 км 1/1 1500 м
[]
+29.8 +9.9 29 +30 +30 жарко 1015.1 1008.4
12 19.09 С 6 30 км ясно +25.0 +10.1 39 +26 +26 жарко 1016.4 1009.5
18 19.09 С 3 30 км ?/? +21.6 +12.7 57 +24 +24 комфорт 1016.4 1009.5 +32.5
21 19.09 С 2 30 км н/о +20.9 +13.4 62 +24 +24 комфорт 1016.0 1009.1

 

Местоположение метеостанции Мачэн (Хубэй, Китай): широта 31.18 долгота 114.96 высота над уровнем моря 59 м.

В архиве по умолчанию представлена погода в Мачэне за последнюю неделю. Архивные данные за месяц целиком и за предыдущие месяцы, начиная с января 2011 года, Вы можете получить, выбрав интересующий диапазон дат из раскрывающегося списка и нажав кнопку "Ввод!".


*Определитесь, кто Вы:
робот инопланетянин человек

Внимание! Время в таблицах - всемирное. Для получения местного времени необходимо прибавить поправку, которая равна 8 ч.

Смотрите также архив погоды в соседних городах и на ближайших метеорологических станциях:

Погода в Ухани (Хубэй, Китай) (101 км)
Погода в Гуши (Хэнань, Китай) (129 км)
Погода в Хушане (Аньхой, Китай) (132 км)
Погода в Синьяне (Хэнань, Китай) (136 км)
Погода в Фуяне (Хэйлунцзян, Китай) (202 км)
Погода в Лушане (Цзяньси, Китай) (203 км)
Погода в Аньцине (Аньхой, Китай) (212 км)
Погода в Чжумадяне (Хэнань, Китай) (221 км)
Погода в Жонсяне (Хубэй, Китай) (228 км)
Погода в Хэфэе (Аньхой, Китай) (228 км)

Пояснения к столбцам:

Ветер - указаны скорость ветра в м/с - средняя за 10 мин, порывы в срок и между сроками (в фигурных скобках) и направление, откуда дует ветер: С - северный, СВ - северо-восточный, В - восточный, ЮВ - юго-восточный, Ю - южный, ЮЗ - юго-западный, З - западный, СЗ - северо-западный.
Видимость - горизонтальная дальность видимости в метрах или километрах. При видимости от 1 до 10 км при отсутствии осадков обычно наблюдается дымка, при ухудшении видимости до 1 км и менее - туман. В сухую погоду видимость может ухудшаться дымом, пылью или мглою.
Явления - указаны атмосферные явления, наблюдавшиеся в срок или в последний час перед сроком; фигурными скобками обозначены явления, наблюдавшиеся между сроками (за 1-3 часа до срока); квадратными скобками обозначены град или гололедные отложения с указанием их диаметра в мм.
Облачность - указаны через наклонную черту общая и нижняя облачность в баллах и высота нижней границы облаков в метрах; квадратными скобками обозначены формы облаков: Ci - перистые, Cs - перисто-слоистые, Cc - перисто-кучевые, Ac - высококучевые, As - высокослоистые, Sc - слоисто-кучевые, Ns - слоисто-дождевые, Cu - кучевые, Cb - кучево-дождевые. Подробнее классификацию облаков см. в Атласе облаков (PDF).
T - Температура воздуха - температура, измеренная на высоте 2 м над землей.
Td - Температура точки росы - температура, при понижении до которой содержащийся в воздухе водяной пар достигнет насыщения.
f - Относительная влажность воздуха - влажноcть воздуха, измеренная на высоте 2 м над землей.
Te - Эффективная температура - температура, которую ощущает одетый по сезону человек в тени. Характеристика душности погоды. При расчете учитывается влияние влажности воздуха и скорости ветра на теплоощущения человека.
Tes - Эффективная температура на солнце - температура, которую ощущает человек, с поправкой на солнечный нагрев. Характеристика знойности погоды. Зависит от высоты солнца над горизонтом, облачности и скорости ветра. Ночью, в пасмурную погоду, а также при ветре 12 м/с и более поправка равна нулю.
P - Атмосферное давление - приведенное к уровню моря атмосферное давление.
Po - Атмосферное давление - измеренное на уровне метеостанции атмосферное давление.
Tmin - Минимальная температура - минимум температуры воздуха на высоте 2 м над землей.
Tmax - Максимальная температура - максимум температуры воздуха на высоте 2 м над землей.
R - Количество осадков - Количество выпавших осадков за период времени, мм. При наведении курсора мыши на число - период времени, за который выпало указанное количество осадков.
R24 - Количество осадков - Количество выпавших осадков за 24 часа, мм.
S - Снежный покров - Высота снежного покрова, см. При наведении курсора мыши на число - состояние снежного покрова и степень покрытия местности в баллах.